CW5834 Weather Reports


time (UTC)temp
C
wind
direction
speed
KPH
gust
KPH
rain 1hr
cm
rain 24hr
cm
rain mn
cm
humidity
%
barometer
mb
20260905061015 22 0.0 3.2 0.00 0.00 0.00 91 1017.4
20260905060036 22 0.0 3.2 0.00 0.00 0.00 91 1017.5
20260905055035 22 0.0 3.2 0.00 0.00 0.00 91 1017.5
20260905054017 22 0.0 3.2 0.00 0.00 0.00 91 1017.6
20260905053017 22 0.0 1.6 0.00 0.00 0.00 91 1017.6
20260905052017 22 0.0 3.2 0.00 0.00 0.00 90 1017.5
20260905051018 22 0.0 3.2 0.00 0.00 0.00 91 1017.7
20260905050037 22 0.0 3.2 0.00 0.00 0.00 91 1017.7
20260905045017 22 0 1.6 1.6 0.00 0.00 0.00 90 1017.7
20260905044017 22 23 1.6 1.6 0.00 0.00 0.00 90 1017.7
20260905043037 22 0.0 3.2 0.00 0.00 0.00 89 1017.7
20260905042017 23 0.0 0.0 0.00 0.00 0.00 89 1017.5
20260905041017 23 0.0 1.6 0.00 0.00 0.00 89 1017.5
20260905040017 23 0.0 3.2 0.00 0.00 0.00 90 1017.2
20260905035016 23 0.0 1.6 0.00 0.00 0.00 90 1017.5
20260905034016 23 113 1.6 1.6 0.00 0.00 0.00 90 1017.2
20260905033036 23 113 1.6 3.2 0.00 0.00 0.00 89 1016.9
20260905032016 23 0.0 0.0 0.00 0.00 0.00 89 1016.7
20260905031036 23 0.0 1.6 0.00 0.00 0.00 88 1016.8
20260905030016 23 0.0 0.0 0.00 0.00 0.00 88 1016.9
20260905025036 23 0.0 3.2 0.00 0.00 0.00 88 1017.0
20260905024016 23 0.0 1.6 0.00 0.00 0.00 87 1016.9
20260905023016 23 0.0 3.2 0.00 0.00 0.00 87 1017.2
20260905022016 24 0.0 1.6 0.00 0.00 0.00 85 1017.2
20260905021016 24 0 1.6 1.6 0.00 0.00 0.00 84 1017.0
20260905020016 25 0.0 3.2 0.00 0.00 0.00 83 1017.1
20260905015016 25 0.0 3.2 0.00 0.00 0.00 83 1017.2
20260905014016 25 0.0 3.2 0.00 0.00 0.00 82 1017.0
20260905013016 25 0.0 1.6 0.00 0.00 0.00 82 1016.7
20260905012016 26 0.0 3.2 0.00 0.00 0.00 81 1016.9
20260905011036 26 45 1.6 1.6 0.00 0.00 0.00 79 1017.0
20260905010016 26 338 1.6 3.2 0.00 0.00 0.00 78 1017.1
20260905005016 26 0.0 1.6 0.00 0.00 0.00 77 1017.0
20260905004016 27 0.0 1.6 0.00 0.00 0.00 75 1017.0
20260905003016 27 0.0 3.2 0.00 0.00 0.00 73 1016.9
20260905002019 27 293 1.6 4.8 0.00 0.00 0.00 72 1017.0
20260905001016 27 0.0 3.2 0.00 0.00 0.00 72 1017.1
20260905000016 27 0.0 3.2 0.00 0.00 0.00 74 1017.1
20260904235015 27 23 1.6 6.4 0.00 0.00 0.00 76 1017.2
20260904234016 28 0.0 1.6 0.00 0.00 0.00 74 1016.9
20260904233016 28 338 1.6 1.6 0.00 0.00 0.00 72 1017.0
20260904232016 29 338 1.6 1.6 0.00 0.00 0.00 73 1016.8
20260904231016 30 0.0 1.6 0.00 0.00 0.00 71 1016.7
20260904230015 31 0.0 1.6 0.00 0.00 0.00 71 1016.8
20260904225016 32 0.0 1.6 0.00 0.00 0.00 67 1016.8
20260904224016 32 338 1.6 1.6 0.00 0.00 0.00 66 1016.7
20260904223035 32 338 1.6 1.6 0.00 0.00 0.00 66 1016.6
20260904222016 33 23 1.6 1.6 0.00 0.00 0.00 62 1016.6
20260904221116 33 0 1.6 1.6 0.00 0.00 0.00 60 1016.7
20260904220015 34 338 1.6 3.2 0.00 0.00 0.00 58 1016.7
20260904215017 34 0 3.2 4.8 0.00 0.00 0.00 55 1016.6
20260904214017 35 338 1.6 4.8 0.00 0.00 0.00 56 1016.7
20260904213017 34 45 1.6 3.2 0.00 0.00 0.00 56 1016.7
20260904212038 34 45 1.6 3.2 0.00 0.00 0.00 52 1016.7
20260904211017 35 338 1.6 3.2 0.00 0.00 0.00 51 1016.8
20260904210017 35 338 3.2 6.4 0.00 0.00 0.00 52 1016.8
20260904205027 35 293 1.6 4.8 0.00 0.00 0.00 52 1016.9
20260904204017 34 270 3.2 4.8 0.00 0.00 0.00 53 1016.9
20260904203017 34 0 1.6 6.4 0.00 0.00 0.00 53 1017.3
20260904202137 35 315 3.2 4.8 0.00 0.00 0.00 52 1017.6
20260904201017 35 293 1.6 4.8 0.00 0.00 0.00 52 1017.8
20260904200017 35 0.0 1.6 0.00 0.00 0.00 52 1018.0
20260904195037 34 270 1.6 4.8 0.00 0.00 0.00 53 1018.1
20260904194017 33 338 6.4 11.3 0.00 0.00 0.00 53 1018.1
20260904193017 33 0 3.2 8.0 0.00 0.00 0.00 54 1018.2
20260904192037 33 0 3.2 6.4 0.00 0.00 0.00 56 1018.2
20260904191017 33 0 3.2 6.4 0.00 0.00 0.00 57 1018.3
20260904190037 33 338 4.8 6.4 0.00 0.00 0.00 55 1018.5
20260904185037 33 0 4.8 8.0 0.00 0.00 0.00 55 1018.6
20260904184017 33 45 3.2 8.0 0.00 0.00 0.00 57 1018.7
20260904183037 33 0 6.4 12.9 0.00 0.00 0.00 58 1018.8
20260904182017 33 113 3.2 9.7 0.00 0.00 0.00 60 1018.9
20260904181017 32 225 1.6 3.2 0.00 0.00 0.00 62 1019.1
20260904180018 32 338 1.6 3.2 0.00 0.00 0.00 59 1019.3
20260904175017 33 338 4.8 9.7 0.00 0.00 0.00 56 1019.5
20260904174017 33 113 1.6 3.2 0.00 0.00 0.00 60 1019.6
20260904173017 32 158 3.2 8.0 0.00 0.00 0.00 59 1019.7
20260904172017 32 315 3.2 6.4 0.00 0.00 0.00 60 1019.8
20260904171017 32 338 3.2 8.0 0.00 0.00 0.00 60 1019.9
20260904170017 32 225 3.2 8.0 0.00 0.00 0.00 63 1020.0
20260904165037 32 203 3.2 6.4 0.00 0.00 0.00 63 1020.0
20260904164037 32 45 4.8 9.7 0.00 0.00 0.00 64 1020.2
20260904163017 32 90 3.2 8.0 0.00 0.00 0.00 63 1020.2
20260904162017 32 270 1.6 4.8 0.00 0.00 0.00 66 1020.3
20260904161017 31 203 3.2 8.0 0.00 0.00 0.00 65 1020.4
20260904160017 31 203 1.6 8.0 0.00 0.00 0.00 67 1020.5
20260904155016 31 203 3.2 9.7 0.00 0.00 0.00 66 1020.4
20260904154037 30 203 3.2 6.4 0.00 0.00 0.00 67 1020.4
20260904153017 30 203 4.8 9.7 0.00 0.00 0.00 69 1020.4
20260904152016 30 203 4.8 12.9 0.00 0.00 0.00 70 1020.3
20260904151017 30 225 4.8 11.3 0.00 0.00 0.00 71 1020.4
20260904150037 29 203 4.8 9.7 0.00 0.00 0.00 70 1020.3
20260904145017 30 203 3.2 8.0 0.00 0.00 0.00 70 1020.3
20260904144036 29 203 3.2 6.4 0.00 0.00 0.00 71 1020.4
20260904143017 28 225 1.6 4.8 0.00 0.00 0.00 72 1020.4
20260904142016 28 135 3.2 6.4 0.00 0.00 0.00 75 1020.3
20260904141016 28 315 1.6 3.2 0.00 0.00 0.00 78 1020.4
20260904140016 28 315 1.6 3.2 0.00 0.00 0.00 79 1020.3
20260904135036 27 0.0 1.6 0.00 0.00 0.00 81 1020.3
20260904134037 27 0 1.6 3.2 0.00 0.00 0.00 83 1020.1
20260904133016 26 158 1.6 4.8 0.00 0.00 0.00 83 1020.1
20260904132016 26 0.0 3.2 0.00 0.00 0.00 87 1020.2
20260904131016 25 0.0 3.2 0.00 0.00 0.00 89 1020.0
20260904130016 24 0.0 3.2 0.00 0.00 0.00 91 1020.1
20260904125023 23 0.0 3.2 0.00 0.00 0.00 91 1019.7
20260904124016 23 0.0 3.2 0.00 0.00 0.00 93 1019.8
20260904123036 22 0.0 1.6 0.00 0.00 0.00 93 1019.8
20260904122016 22 0.0 1.6 0.00 0.00 0.00 95 1019.7
20260904121016 22 315 1.6 3.2 0.00 0.00 0.00 95 1019.5
20260904120016 21 0.0 3.2 0.00 0.00 0.00 96 1019.3
20260904115016 21 0.0 3.2 0.00 0.00 0.00 96 1019.3
20260904114016 21 0 1.6 3.2 0.00 0.00 0.00 95 1019.1
20260904113016 21 0 1.6 3.2 0.00 0.00 0.00 95 1019.2
20260904112016 21 0.0 3.2 0.00 0.00 0.00 95 1019.2
20260904111016 21 0.0 0.0 0.00 0.00 0.00 95 1019.1
20260904110016 21 0.0 0.0 0.00 0.00 0.00 95 1018.9
20260904105016 21 0.0 1.6 0.00 0.00 0.00 95 1018.7
20260904104016 21 0.0 3.2 0.00 0.00 0.00 95 1018.7
20260904103016 21 0.0 0.0 0.00 0.00 0.00 95 1018.9
20260904102016 21 0.0 0.0 0.00 0.00 0.00 95 1018.9
20260904101016 21 0.0 3.2 0.00 0.00 0.00 95 1018.8
20260904100036 21 0.0 1.6 0.00 0.00 0.00 95 1018.8
20260904095016 21 0.0 3.2 0.00 0.00 0.00 95 1018.7
20260904094016 21 0.0 3.2 0.00 0.00 0.00 95 1018.7
20260904093036 21 23 1.6 1.6 0.00 0.00 0.00 95 1018.8
20260904092016 21 0.0 3.2 0.00 0.00 0.00 94 1019.0
20260904091016 21 0.0 3.2 0.00 0.00 0.00 94 1019.0
20260904090016 21 23 1.6 1.6 0.00 0.00 0.00 94 1018.7
20260904085016 21 0.0 3.2 0.00 0.00 0.00 94 1018.5
20260904084035 21 0.0 1.6 0.00 0.00 0.00 94 1018.6
20260904083036 21 338 1.6 1.6 0.00 0.00 0.00 94 1018.3
20260904082015 21 0.0 0.0 0.00 0.00 0.00 94 1018.2
20260904081036 21 0.0 1.6 0.00 0.00 0.00 94 1018.2
20260904080015 21 0.0 0.0 0.00 0.00 0.00 93 1018.2
20260904075015 22 0.0 3.2 0.00 0.00 0.00 93 1018.3
20260904074016 22 0.0 3.2 0.00 0.00 0.00 93 1018.5
20260904073016 22 0.0 3.2 0.00 0.00 0.00 93 1018.6
20260904072016 22 0.0 3.2 0.00 0.00 0.00 93 1018.7
20260904071015 22 0.0 3.2 0.00 0.00 0.00 92 1018.7
20260904070036 22 0.0 0.0 0.00 0.00 0.00 92 1018.7
20260904065015 22 0.0 3.2 0.00 0.00 0.00 92 1018.8
20260904064016 22 0.0 3.2 0.00 0.00 0.00 92 1018.8
20260904063015 22 338 1.6 3.2 0.00 0.00 0.00 93 1018.9
20260904062015 22 0.0 3.2 0.00 0.00 0.00 92 1018.9